Weather Roundup
Issued by NWS Chicago, IL

Home | Current Version | Previous Version | Graphics & Text | Print | Product List | Glossary On
Versions: 1 2 3 4 5 6 7 8 9 10 11 12 13 14 15 16 17 18 19 20 21 22 23 24 25 26 27 28 29 30 31 32 33 34 35 36 37 38 39 40 41 42 43 44 45 46 47 48 49 50
000
NZUS59 KLOT 271703
HRRLOT

CHICAGO AREA WEATHER ROUNDUP
NATIONAL WEATHER SERVICE CHICAGO/ROMEOVILLE IL
1200 PM CDT FRI MAY 27 2016

NOTE: "FAIR" INDICATES FEW OR NO CLOUDS BELOW 12,000 FEET WITH NO
SIGNIFICANT WEATHER AND/OR OBSTRUCTIONS TO VISIBILITY.

* THESE STATIONS ARE NOT UNDER NWS QUALITY CONTROL. THEY ALSO MAY NOT
  REPORT WEATHER SUCH AS PRECIPITATION OR FOG.

ILZ005-006-012>014-019>023-271800-
NORTHEAST ILLINOIS

CITY           SKY/WX    TMP DP  RH WIND       PRES   REMARKS
OHARE          PTSUNNY   78  66  66 S12       29.89F HX  80
MIDWAY         CLOUDY    81  64  56 S10       29.89F HX  82
AURORA         PTSUNNY   80  67  64 S13       29.88F HX  82
LANSING*       CLOUDY    80  65  58 S15       29.92F HX  82
WAUKEGAN       LGT RAIN  76  68  76 S9        29.90R
DUPAGE AIRPORT CLOUDY    79  66  64 S17       29.89F HX  81
WHEELING       MOSUNNY   77  66  68 S9        29.90F
$$

WIZ051-052-058>065-066-070>072-271800-
SOUTHEAST WISCONSIN

CITY           SKY/WX    TMP DP  RH WIND       PRES   REMARKS
MILWAUKEE      CLOUDY    73  66  78 SE8       29.88S
KENOSHA*       PTSUNNY   76  68  76 S10       29.90R
RACINE*        CLOUDY    71  64  78 S12       29.91R
WAUKESHA       CLOUDY    72  66  83 S7        29.90S
$$

INZ001>003-010>013-019-020-271800-
NORTHWEST INDIANA

CITY           SKY/WX    TMP DP  RH WIND       PRES   REMARKS
GARY*          PTSUNNY   81  72  74 S9        29.92F HX  84
MICHIGAN CITY* NOT AVBL
RENSSELAER*    NOT AVBL
VALPARAISO     PTSUNNY   80  64  58 SW15G22   29.94F HX  82
$$

LMZ740>746-271800-
SOUTHERN LAKE MICHIGAN

STATION/POSITION TIME  SKY/WX   TEMP WIND        PRES    VSBY
                                AIR  DIR/SP/G
                 (UTC)          (F)  (DEG/KT/KT) (MB)    (MI)
HARRISON CRIB    1600            72  180/ 16/ 17   N/A
BURNHAM HARBOR   1700            78  160/  8/ 14   N/A
CALUMET HARBOR   1600            74  180/  9/ 12 1012.6R
BURNS HARBOR     1600            74  180/ 11/ 18 1014.2R
MICHIGAN CITY    1600            72  140/ 10/ 12   N/A
$$

ABBREVIATIONS USED IN REMARKS
   TC - TEMPERATURE IN CELSIUS
  WCI - WIND CHILL INDEX
   HX - HEAT INDEX
  VSB - VISIBILITY
$$




USA.gov is the U.S. government's official web portal to all federal, state and local government web resources and services.